Location: Tierz
(42.1336°N, 0.3549°W)
Time: 23:55:47
(UTC+00:00)

Cosmos 1076 Rocket - Pass Details

Date: 29 October 2020
Orbit: 590 x 612 km, 82.5° (Epoch: 05 December)

Event Time Altitude Azimuth Distance (km) Brightness Sun altitude
Rises 18:28:04 0° 355° (N) 2,833 7.0 -17.1°
Reaches altitude 10° 18:30:18 10° 360° (N) 1,928 6.1 -17.5°
Maximum altitude 18:34:30 59° 80° (E) 685 3.4 -18.3°
Drops below altitude 10° 18:38:42 10° 160° (SSE) 1,921 5.9 -19.1°
Sets 18:40:55 0° 164° (SSE) 2,821 6.8 -19.5°
